Temp
-0 -0 -0 -1 -1 -1 -1 -1 -1 -2 -2 -2 -2 -2 -2 -2 -2 -2 -2 -2 -2 -2 -2 -2 -2 -2 -1 -0 1 1 2 2 2 3 3 3 3 3 3 3 3 3 3 3 4 4 5 6 6 6 7 8 8 8 8 8 8 8 8 8 8 7 7 7 7 7 7 7 7
-1 -1 -1 -1 -1 -1 -1 -1 -2 -2 -2 -2 -2 -2 -2 -2 -2 -2 -2 -2 -2 -3 -3 -2 -2 -2 -1 -1 -0 0 1 2 2 2 3 3 3 3 3 3 3 3 3 3 3 4 4 5 5 5 6 7 8 8 8 8 8 8 8 8 8 7 7 7 7 7 7 7 7
-1 -1 -1 -1 -1 -2 -2 -2 -2 -2 -2 -2 -2 -2 -2 -2 -2 -3 -3 -3 -3 -3 -3 -3 -2 -2 -2 -2 -1 -1 0 1 1 2 2 3 3 3 3 3 3 3 4 3 3 3 4 4 4 5 5 6 7 8 8 8 8 8 8 8 8 8 7 7 7 7 7 7 7
-1 -1 -2 -2 -2 -2 -2 -2 -2 -2 -2 -2 -2 -2 -2 -3 -3 -3 -3 -3 -3 -3 -3 -3 -2 -2 -2 -2 -2 -1 -0 0 1 1 2 2 3 3 3 3 3 3 4 4 3 3 3 3 4 4 4 5 6 7 7 8 8 8 8 8 8 7 7 7 7 7 7 7 7
-2 -2 -2 -2 -2 -2 -2 -3 -3 -3 -3 -3 -3 -3 -3 -3 -3 -3 -3 -3 -3 -3 -3 -2 -3 -3 -3 -2 -2 -1 -1 0 0 1 1 2 2 3 3 3 3 3 3 4 4 3 3 3 4 4 4 4 5 6 6 6 7 7 7 7 7 7 7 7 7 7 7 6 6
-2 -2 -2 -2 -2 -3 -3 -3 -3 -3 -3 -3 -3 -3 -3 -4 -4 -4 -4 -4 -3 -3 -2 -2 -3 -3 -3 -2 -2 -1 -1 -0 0 0 1 1 2 2 3 3 3 3 3 4 4 4 4 3 4 4 4 4 4 4 5 5 6 6 7 7 7 7 7 7 7 7 7 6 6
-3 -3 -3 -3 -3 -3 -3 -3 -3 -3 -3 -3 -4 -4 -4 -4 -4 -4 -4 -3 -3 -3 -3 -3 -3 -2 -2 -2 -2 -1 -1 -1 -0 0 0 1 1 2 2 3 3 3 3 3 3 4 4 4 4 4 4 4 4 4 4 4 4 5 6 6 6 6 6 6 6 6 6 6 6
-3 -3 -3 -3 -3 -3 -3 -4 -3 -3 -4 -4 -4 -4 -4 -4 -4 -4 -4 -3 -3 -3 -3 -3 -3 -2 -2 -2 -2 -1 -1 -1 -1 -0 0 0 1 1 2 2 3 3 3 3 3 3 3 3 3 3 3 3 3 3 3 3 4 4 5 5 5 6 6 6 6 6 6 6 6
-3 -3 -3 -3 -4 -4 -4 -4 -4 -4 -4 -4 -4 -4 -4 -4 -4 -4 -4 -4 -3 -3 -3 -3 -3 -2 -2 -2 -2 -2 -1 -1 -1 -1 -0 0 1 1 2 2 2 3 3 3 3 3 3 3 3 3 3 3 3 2 2 2 3 3 4 5 5 5 5 5 5 5 5 5 5
-3 -4 -4 -4 -4 -4 -4 -4 -4 -4 -4 -4 -4 -4 -4 -4 -4 -4 -4 -4 -3 -3 -3 -3 -3 -3 -2 -2 -2 -2 -1 -1 -1 -1 -0 0 0 1 1 2 2 3 3 3 3 3 3 3 3 3 3 3 2 2 2 2 2 3 3 4 4 5 5 5 5 5 5 5 4
-4 -4 -4 -4 -4 -4 -4 -4 -4 -4 -5 -5 -5 -5 -4 -4 -4 -4 -4 -4 -3 -3 -3 -3 -3 -3 -3 -2 -2 -2 -2 -1 -1 -1 -1 -0 0 1 1 1 2 2 3 3 3 3 3 3 4 3 3 3 2 2 2 2 2 2 3 4 4 4 5 4 4 4 4 4 4
-5 -5 -5 -5 -5 -5 -5 -5 -5 -5 -5 -5 -5 -5 -4 -4 -4 -4 -4 -4 -3 -3 -3 -3 -3 -3 -3 -2 -2 -2 -2 -2 -1 -1 -1 -0 0 1 1 1 2 2 2 2 3 3 3 3 4 4 3 3 2 2 2 2 2 2 2 3 4 4 4 4 4 3 3 3 4
-5 -5 -5 -5 -5 -5 -5 -5 -5 -5 -5 -5 -5 -5 -5 -4 -4 -4 -4 -4 -3 -3 -3 -3 -3 -3 -3 -3 -2 -2 -2 -2 -1 -1 -1 -1 0 0 1 1 1 1 1 1 2 2 3 3 3 3 3 3 2 2 1 1 1 1 2 2 3 3 3 3 3 3 3 3 3
-6 -6 -6 -6 -6 -6 -5 -5 -5 -5 -5 -5 -5 -5 -5 -4 -4 -4 -4 -4 -4 -4 -3 -3 -3 -3 -3 -3 -3 -2 -2 -2 -2 -1 -1 -1 -0 0 1 1 1 1 1 1 1 2 2 2 3 3 3 2 2 2 1 1 1 1 1 2 3 3 3 3 3 3 3 3 3
-7 -7 -6 -6 -6 -6 -6 -6 -6 -6 -5 -5 -5 -5 -5 -5 -4 -4 -4 -4 -4 -4 -4 -3 -3 -3 -3 -3 -3 -3 -2 -2 -2 -1 -1 -1 -1 -0 0 0 1 1 1 1 1 1 2 2 2 2 2 2 2 2 1 1 1 1 1 2 2 3 3 3 3 3 3 3 3
-7 -7 -7 -7 -6 -6 -6 -6 -6 -6 -6 -5 -5 -5 -5 -5 -4 -4 -4 -4 -4 -4 -4 -3 -3 -3 -3 -3 -3 -3 -2 -2 -2 -1 -1 -1 -1 -1 -0 0 1 1 1 1 1 1 1 1 2 2 2 2 2 1 1 1 1 1 1 2 2 2 3 3 3 3 3 3 3
-7 -7 -7 -7 -7 -6 -6 -6 -6 -6 -6 -6 -5 -5 -5 -5 -5 -4 -4 -4 -4 -4 -4 -3 -3 -3 -3 -3 -3 -2 -2 -2 -1 -1 -1 -1 -1 -1 -1 -0 0 1 1 1 0 0 1 1 1 1 2 2 2 1 1 1 1 1 1 1 2 2 2 2 2 3 2 2 2
-8 -7 -7 -7 -7 -7 -6 -6 -6 -6 -6 -6 -5 -5 -5 -5 -5 -5 -5 -4 -4 -4 -4 -3 -3 -3 -3 -3 -3 -2 -2 -2 -1 -1 -1 -1 -1 -1 -1 -0 0 0 1 1 0 0 0 0 0 1 1 1 1 1 1 1 1 1 1 1 1 2 2 2 2 2 2 2 1
-8 -8 -7 -7 -7 -7 -7 -6 -6 -6 -6 -6 -6 -5 -5 -5 -5 -5 -5 -5 -4 -4 -4 -4 -3 -3 -3 -3 -3 -2 -2 -2 -2 -2 -1 -1 -1 -1 -1 -0 -0 0 0 0 0 0 0 0 0 0 1 1 1 1 1 1 1 1 1 1 1 1 1 1 1 1 1 1 1
-8 -8 -8 -7 -7 -7 -7 -7 -6 -6 -6 -6 -6 -6 -5 -5 -5 -5 -5 -5 -5 -4 -4 -4 -4 -3 -3 -3 -3 -3 -3 -2 -2 -2 -2 -1 -1 -1 -1 -0 -0 0 0 0 0 0 0 0 0 0 0 1 1 1 1 1 0 0 0 0 0 0 0 1 1 1 1 1 0
-8 -8 -8 -8 -7 -7 -7 -7 -7 -6 -6 -6 -6 -6 -6 -6 -6 -6 -5 -5 -5 -5 -4 -4 -4 -4 -4 -3 -3 -3 -3 -3 -3 -3 -2 -2 -2 -1 -1 -1 -1 -0 -0 -0 0 0 0 0 0 0 0 0 0 0 0 0 0 0 0 0 0 0 0 0 0 0 0 0 0
-8 -8 -8 -8 -8 -7 -7 -7 -7 -6 -6 -6 -6 -6 -6 -6 -6 -6 -6 -5 -5 -5 -5 -5 -4 -4 -4 -4 -4 -3 -3 -3 -3 -3 -3 -3 -3 -2 -2 -2 -2 -1 -1 -1 -1 -0 -0 -0 -0 -0 -0 -0 -0 -0 -0 -0 -0 -0 -0 -0 -0 -0 -0 -0 -0 -0 -0 -0 -0
-8 -8 -8 -8 -8 -8 -7 -7 -7 -7 -6 -6 -6 -6 -6 -6 -6 -6 -6 -5 -5 -5 -5 -5 -5 -5 -4 -4 -4 -4 -4 -4 -4 -4 -4 -4 -4 -3 -3 -3 -3 -2 -2 -2 -2 -2 -1 -1 -1 -1 -1 -1 -1 -1 -1 -1 -1 -1 -1 -1 -1 -1 -1 -1 -0 -0 -0 -0 -0
-9 -9 -8 -8 -8 -8 -8 -8 -7 -7 -7 -6 -6 -6 -6 -6 -6 -6 -6 -6 -5 -5 -5 -5 -5 -5 -5 -4 -4 -4 -4 -4 -4 -4 -4 -4 -4 -4 -4 -4 -4 -3 -3 -3 -3 -2 -2 -2 -2 -2 -2 -2 -2 -2 -2 -2 -2 -2 -2 -2 -1 -1 -1 -1 -1 -1 -1 -1 -1
-9 -9 -9 -9 -8 -8 -8 -8 -8 -7 -7 -7 -7 -7 -6 -6 -6 -6 -6 -6 -6 -5 -5 -5 -5 -5 -5 -5 -5 -5 -4 -4 -4 -4 -4 -4 -4 -4 -4 -4 -4 -4 -4 -4 -3 -3 -3 -3 -3 -3 -3 -2 -2 -2 -2 -2 -2 -2 -2 -2 -2 -2 -2 -2 -1 -1 -1 -1 -1
-9 -9 -9 -9 -9 -8 -8 -8 -8 -8 -8 -7 -7 -7 -7 -7 -6 -6 -6 -6 -6 -6 -5 -5 -5 -5 -5 -5 -5 -5 -5 -5 -5 -5 -5 -5 -5 -4 -4 -4 -4 -4 -4 -4 -4 -4 -3 -3 -3 -3 -3 -3 -3 -3 -3 -3 -3 -3 -3 -3 -3 -3 -3 -2 -2 -2 -2 -2 -2
-10 -10 -9 -9 -9 -9 -8 -8 -8 -8 -8 -8 -7 -7 -7 -7 -7 -6 -6 -7 -7 -6 -6 -6 -6 -6 -5 -5 -5 -5 -5 -5 -5 -5 -5 -5 -5 -5 -5 -5 -4 -4 -4 -5 -5 -4 -4 -4 -3 -3 -3 -3 -3 -3 -3 -3 -3 -3 -3 -3 -3 -3 -3 -3 -3 -3 -2 -2 -2
-10 -10 -9 -9 -9 -9 -9 -9 -9 -8 -8 -8 -8 -8 -7 -7 -7 -7 -6 -7 -7 -7 -6 -6 -6 -6 -6 -6 -6 -5 -5 -5 -5 -5 -5 -5 -5 -5 -5 -5 -5 -5 -4 -5 -5 -5 -4 -4 -4 -4 -4 -4 -4 -4 -4 -4 -4 -4 -3 -3 -4 -4 -4 -4 -4 -3 -3 -3 -3
-10 -10 -9 -9 -9 -9 -9 -9 -9 -9 -9 -9 -8 -8 -8 -7 -7 -7 -7 -6 -7 -7 -7 -7 -6 -6 -6 -6 -6 -6 -6 -5 -5 -5 -5 -5 -5 -5 -5 -5 -5 -5 -5 -5 -5 -5 -5 -5 -4 -4 -4 -4 -4 -4 -4 -4 -4 -4 -4 -4 -4 -4 -4 -4 -4 -4 -4 -3 -3
-10 -10 -9 -9 -9 -9 -9 -9 -9 -9 -9 -9 -9 -8 -8 -8 -7 -7 -7 -7 -7 -7 -7 -7 -7 -7 -7 -7 -7 -6 -6 -6 -6 -6 -5 -5 -5 -5 -5 -5 -5 -5 -5 -5 -5 -5 -5 -5 -5 -5 -5 -4 -4 -5 -5 -5 -5 -5 -5 -5 -5 -5 -5 -5 -4 -4 -4 -4 -4
-10 -10 -10 -9 -9 -9 -9 -9 -9 -9 -9 -9 -9 -9 -8 -8 -8 -8 -7 -7 -7 -7 -7 -7 -7 -7 -7 -7 -7 -7 -7 -7 -6 -6 -6 -6 -6 -6 -6 -6 -6 -5 -5 -5 -5 -5 -5 -6 -5 -5 -5 -5 -5 -5 -5 -5 -5 -5 -5 -5 -5 -5 -5 -5 -5 -5 -5 -5 -5
-10 -10 -10 -10 -9 -9 -9 -9 -9 -9 -9 -9 -9 -9 -9 -8 -8 -8 -8 -7 -7 -7 -7 -7 -7 -7 -7 -7 -7 -7 -7 -7 -7 -7 -7 -6 -6 -6 -6 -6 -6 -6 -6 -6 -6 -5 -5 -5 -5 -5 -5 -5 -5 -5 -5 -5 -5 -5 -5 -6 -6 -6 -6 -6 -6 -6 -6 -6 -5
-10 -10 -10 -10 -10 -9 -9 -9 -9 -9 -9 -9 -9 -9 -9 -9 -8 -8 -8 -8 -7 -7 -7 -7 -7 -7 -7 -7 -7 -7 -7 -7 -7 -7 -7 -7 -7 -7 -6 -6 -6 -6 -6 -6 -6 -5 -5 -5 -5 -5 -5 -6 -6 -6 -6 -6 -6 -6 -6 -6 -6 -6 -6 -6 -6 -6 -6 -6 -6
-10 -10 -10 -10 -10 -9 -9 -9 -9 -9 -9 -9 -9 -9 -9 -9 -9 -9 -8 -8 -8 -8 -7 -7 -7 -8 -8 -8 -8 -8 -8 -8 -8 -8 -8 -8 -7 -7 -7 -7 -6 -6 -6 -6 -5 -5 -5 -5 -5 -5 -5 -6 -6 -6 -6 -6 -6 -6 -6 -6 -6 -6 -6 -7 -7 -7 -7 -6 -6
-11 -10 -10 -10 -10 -10 -9 -9 -9 -9 -9 -9 -10 -10 -9 -9 -9 -9 -9 -9 -8 -8 -8 -8 -8 -8 -8 -8 -8 -8 -8 -8 -8 -8 -8 -8 -8 -8 -7 -7 -7 -6 -6 -5 -5 -5 -5 -5 -5 -5 -6 -6 -6 -6 -6 -6 -7 -7 -7 -7 -7 -7 -7 -7 -7 -7 -7 -6 -6
-11 -11 -11 -10 -10 -10 -10 -10 -9 -9 -9 -9 -10 -10 -10 -10 -10 -9 -9 -9 -9 -9 -8 -8 -8 -8 -8 -8 -8 -8 -8 -8 -8 -8 -8 -8 -8 -8 -8 -7 -7 -6 -6 -6 -5 -5 -5 -5 -6 -6 -6 -6 -6 -7 -7 -7 -7 -7 -7 -7 -7 -7 -7 -7 -7 -7 -7 -6 -6
-11 -11 -11 -11 -10 -10 -10 -10 -10 -10 -10 -10 -10 -10 -10 -10 -10 -10 -10 -10 -9 -9 -9 -8 -8 -8 -8 -8 -8 -8 -8 -8 -8 -8 -8 -8 -8 -8 -8 -7 -7 -7 -6 -6 -6 -6 -6 -6 -6 -6 -7 -7 -7 -7 -7 -7 -7 -7 -7 -7 -8 -8 -8 -7 -8 -7 -7 -7 -7
-11 -11 -11 -11 -11 -11 -10 -10 -10 -10 -10 -10 -10 -10 -10 -10 -10 -10 -10 -10 -10 -9 -9 -9 -9 -8 -8 -8 -8 -8 -8 -8 -8 -8 -8 -8 -8 -8 -8 -8 -7 -7 -7 -7 -6 -6 -6 -6 -7 -7 -7 -7 -7 -7 -7 -7 -7 -7 -8 -7 -8 -7 -7 -7 -7 -7 -7 -7 -7
-11 -11 -11 -11 -11 -11 -11 -11 -10 -10 -10 -10 -10 -10 -10 -10 -10 -10 -10 -10 -10 -10 -9 -9 -9 -9 -9 -8 -8 -8 -8 -9 -9 -8 -8 -8 -8 -8 -8 -8 -8 -7 -7 -7 -7 -6 -7 -7 -7 -7 -7 -7 -7 -7 -7 -7 -7 -8 -8 -8 -7 -7 -7 -7 -7 -7 -7 -7 -7
-11 -11 -11 -12 -12 -12 -11 -11 -11 -11 -11 -10 -10 -10 -10 -10 -10 -10 -10 -10 -10 -10 -10 -10 -9 -9 -9 -9 -9 -8 -9 -9 -9 -9 -8 -8 -8 -8 -8 -8 -8 -8 -8 -8 -7 -7 -7 -7 -7 -7 -7 -7 -7 -7 -7 -7 -8 -8 -8 -8 -7 -7 -7 -7 -8 -8 -8 -7 -7
-11 -11 -12 -12 -12 -12 -12 -12 -11 -11 -11 -11 -11 -11 -11 -10 -10 -10 -10 -10 -10 -10 -10 -10 -10 -9 -9 -9 -9 -9 -9 -9 -9 -9 -9 -9 -8 -8 -8 -8 -8 -8 -8 -8 -8 -7 -7 -7 -7 -7 -7 -7 -7 -7 -8 -8 -8 -8 -8 -8 -8 -7 -7 -7 -8 -8 -8 -8 -8
Height
1480 1478 1476 1475 1473 1471 1469 1467 1466 1464 1462 1460 1457 1455 1453 1451 1449 1447 1445 1444 1442 1441 1439 1437 1436 1434 1432 1431 1429 1428 1427 1426 1426 1425 1425 1425 1424 1424 1423 1423 1423 1423 1422 1422 1421 1421 1420 1419 1420 1421 1420 1418 1418 1419 1420 1421 1422 1423 1425 1426 1427 1429 1430 1431 1432 1432 1433 1434 1435
1479 1477 1476 1474 1472 1470 1468 1466 1464 1463 1461 1459 1456 1454 1452 1450 1448 1446 1444 1442 1441 1439 1437 1435 1433 1432 1430 1428 1427 1426 1425 1424 1423 1422 1422 1422 1422 1422 1422 1421 1421 1421 1421 1421 1421 1420 1419 1418 1418 1419 1418 1416 1416 1416 1417 1418 1419 1421 1422 1424 1425 1426 1428 1429 1430 1431 1431 1432 1433
1478 1476 1475 1473 1471 1469 1467 1465 1463 1461 1460 1457 1456 1454 1451 1449 1447 1445 1443 1441 1439 1437 1436 1434 1431 1430 1428 1426 1426 1425 1424 1422 1421 1421 1420 1419 1419 1419 1420 1420 1419 1419 1419 1419 1419 1419 1418 1417 1416 1418 1418 1415 1414 1414 1415 1416 1417 1418 1420 1421 1422 1424 1426 1426 1427 1429 1430 1431 1431
1477 1476 1474 1472 1470 1469 1467 1465 1463 1461 1459 1456 1455 1453 1451 1449 1446 1444 1442 1440 1437 1436 1434 1432 1430 1428 1426 1425 1424 1423 1422 1421 1420 1419 1417 1417 1416 1417 1417 1417 1418 1417 1417 1417 1417 1417 1416 1415 1414 1416 1417 1414 1413 1413 1414 1415 1416 1416 1417 1419 1420 1422 1423 1424 1426 1427 1428 1429 1430
1476 1475 1473 1471 1470 1468 1466 1464 1462 1460 1458 1456 1454 1452 1450 1448 1446 1443 1441 1438 1436 1434 1432 1431 1429 1427 1425 1424 1422 1421 1420 1419 1418 1417 1416 1415 1414 1414 1414 1415 1415 1416 1416 1416 1416 1416 1415 1414 1414 1415 1415 1413 1412 1412 1413 1414 1415 1415 1416 1417 1418 1420 1421 1422 1423 1425 1426 1427 1428
1476 1474 1473 1471 1469 1467 1466 1464 1462 1460 1457 1455 1453 1451 1449 1447 1444 1442 1440 1437 1435 1433 1431 1429 1427 1425 1423 1422 1421 1419 1418 1417 1416 1415 1414 1413 1412 1412 1412 1412 1412 1413 1414 1414 1414 1414 1413 1412 1413 1413 1413 1412 1411 1411 1412 1414 1415 1415 1415 1416 1416 1418 1419 1420 1421 1423 1424 1425 1426
1476 1474 1472 1470 1468 1466 1465 1463 1461 1459 1457 1454 1452 1450 1448 1446 1443 1441 1439 1436 1434 1431 1429 1427 1425 1423 1421 1420 1419 1417 1416 1415 1414 1413 1412 1411 1410 1410 1410 1409 1410 1411 1411 1412 1412 1412 1412 1411 1411 1411 1411 1411 1411 1411 1412 1413 1414 1414 1415 1415 1415 1416 1417 1418 1419 1421 1422 1423 1424
1475 1473 1471 1470 1468 1466 1464 1462 1460 1458 1456 1453 1451 1449 1446 1444 1442 1439 1437 1435 1432 1430 1428 1426 1424 1422 1420 1419 1417 1416 1414 1413 1412 1411 1410 1409 1408 1408 1407 1407 1407 1408 1409 1410 1411 1411 1410 1410 1410 1410 1410 1409 1409 1410 1411 1413 1413 1413 1414 1414 1414 1414 1415 1416 1417 1418 1420 1421 1422
1474 1472 1471 1469 1467 1465 1463 1461 1459 1457 1455 1452 1450 1448 1446 1443 1441 1438 1436 1433 1431 1429 1427 1425 1422 1421 1419 1417 1416 1414 1413 1412 1411 1409 1408 1407 1406 1406 1405 1405 1405 1405 1406 1407 1408 1409 1409 1408 1408 1408 1408 1407 1407 1408 1410 1412 1412 1413 1413 1413 1413 1413 1413 1414 1415 1416 1417 1419 1420
1473 1471 1470 1468 1466 1464 1462 1460 1458 1456 1454 1451 1449 1447 1445 1442 1440 1437 1435 1432 1430 1428 1426 1424 1421 1419 1417 1416 1414 1413 1411 1410 1409 1408 1406 1406 1405 1404 1404 1403 1403 1403 1403 1404 1405 1406 1407 1407 1407 1407 1407 1406 1406 1407 1409 1410 1411 1411 1411 1412 1412 1412 1412 1413 1414 1415 1416 1417 1418
1473 1471 1470 1468 1466 1464 1462 1459 1457 1455 1453 1451 1448 1446 1444 1441 1439 1437 1434 1432 1429 1427 1425 1422 1420 1418 1416 1414 1413 1411 1410 1409 1408 1406 1405 1404 1403 1402 1402 1401 1401 1401 1401 1401 1402 1403 1404 1404 1405 1405 1406 1406 1406 1406 1408 1408 1409 1410 1410 1411 1411 1411 1411 1411 1412 1413 1414 1415 1416
1473 1471 1469 1467 1465 1463 1461 1459 1456 1454 1452 1450 1448 1445 1443 1441 1439 1436 1434 1431 1429 1426 1424 1421 1419 1417 1415 1413 1411 1410 1409 1408 1406 1405 1404 1402 1401 1401 1400 1400 1400 1399 1399 1399 1399 1400 1401 1402 1402 1403 1403 1403 1404 1406 1406 1407 1407 1408 1409 1409 1410 1410 1410 1411 1411 1412 1413 1414 1415
1472 1471 1469 1467 1465 1463 1461 1458 1456 1454 1452 1450 1447 1445 1443 1441 1438 1436 1433 1431 1428 1426 1423 1421 1419 1416 1415 1412 1411 1409 1408 1406 1405 1404 1403 1401 1400 1399 1399 1399 1398 1398 1397 1397 1397 1398 1399 1400 1400 1401 1401 1401 1402 1404 1405 1406 1406 1406 1407 1408 1408 1409 1409 1410 1411 1411 1412 1413 1414
1472 1470 1468 1466 1464 1462 1460 1458 1456 1454 1451 1449 1447 1445 1442 1440 1438 1436 1433 1431 1428 1425 1423 1420 1418 1416 1414 1412 1410 1409 1407 1406 1405 1403 1402 1400 1398 1397 1397 1397 1397 1397 1396 1396 1396 1397 1397 1398 1399 1399 1400 1400 1401 1402 1403 1405 1405 1406 1406 1406 1407 1407 1408 1409 1410 1411 1411 1412 1413
1472 1470 1468 1466 1464 1462 1460 1458 1456 1453 1451 1449 1447 1445 1443 1440 1438 1436 1433 1431 1428 1425 1423 1420 1418 1416 1414 1412 1410 1408 1407 1406 1404 1402 1401 1399 1397 1396 1396 1396 1396 1396 1396 1396 1396 1396 1397 1397 1398 1398 1399 1399 1400 1401 1402 1403 1405 1405 1406 1406 1406 1406 1406 1407 1409 1410 1410 1411 1411
1471 1470 1468 1466 1464 1462 1460 1458 1456 1453 1451 1449 1447 1445 1443 1440 1438 1436 1433 1431 1428 1426 1423 1421 1418 1416 1413 1411 1410 1408 1406 1405 1404 1402 1401 1399 1397 1395 1394 1395 1395 1395 1395 1395 1395 1396 1396 1397 1397 1397 1397 1398 1398 1399 1401 1402 1403 1404 1404 1404 1405 1405 1406 1406 1407 1408 1409 1410 1410
1471 1469 1468 1466 1464 1462 1460 1458 1456 1454 1452 1450 1447 1445 1443 1441 1438 1436 1434 1432 1429 1426 1424 1421 1418 1416 1413 1411 1409 1408 1406 1405 1403 1402 1400 1398 1396 1395 1394 1393 1393 1394 1394 1394 1395 1395 1395 1396 1396 1396 1396 1397 1397 1398 1399 1400 1401 1402 1403 1403 1403 1404 1404 1405 1406 1406 1407 1408 1409
1471 1469 1467 1465 1463 1461 1460 1458 1456 1454 1452 1450 1447 1445 1443 1441 1438 1436 1435 1432 1430 1427 1424 1421 1419 1416 1413 1411 1409 1407 1406 1404 1402 1401 1399 1397 1396 1395 1394 1393 1392 1393 1393 1394 1394 1394 1394 1394 1395 1395 1396 1396 1396 1397 1398 1399 1400 1401 1401 1402 1402 1403 1403 1404 1404 1405 1406 1406 1407
1471 1469 1467 1465 1463 1461 1459 1457 1456 1454 1452 1450 1447 1445 1443 1441 1439 1437 1435 1433 1431 1428 1425 1422 1419 1416 1414 1412 1410 1408 1406 1404 1402 1400 1399 1397 1396 1395 1394 1393 1392 1391 1392 1392 1392 1392 1393 1393 1394 1394 1395 1395 1396 1397 1397 1398 1399 1399 1400 1401 1401 1401 1402 1402 1402 1403 1404 1405 1406
1471 1469 1467 1465 1463 1461 1459 1457 1456 1454 1452 1450 1448 1445 1443 1441 1439 1437 1435 1433 1431 1429 1426 1423 1420 1417 1415 1412 1410 1408 1406 1405 1403 1401 1399 1398 1396 1396 1394 1393 1392 1391 1391 1391 1391 1391 1391 1392 1392 1393 1394 1395 1395 1396 1397 1397 1398 1399 1399 1399 1400 1400 1401 1401 1401 1401 1402 1403 1404
1471 1469 1467 1465 1463 1461 1459 1457 1456 1454 1452 1450 1448 1445 1443 1441 1439 1437 1436 1434 1431 1429 1427 1424 1421 1418 1416 1413 1411 1409 1407 1406 1404 1402 1400 1399 1397 1396 1395 1394 1393 1392 1392 1391 1391 1391 1391 1391 1391 1391 1392 1393 1394 1395 1396 1396 1397 1398 1398 1399 1399 1399 1399 1400 1400 1400 1401 1402 1403
1471 1469 1467 1465 1463 1461 1459 1457 1456 1454 1452 1450 1448 1446 1443 1441 1439 1437 1436 1434 1432 1430 1428 1425 1423 1420 1417 1415 1413 1411 1409 1407 1405 1403 1401 1400 1399 1398 1397 1396 1395 1394 1393 1393 1392 1391 1391 1391 1391 1391 1391 1392 1393 1394 1395 1396 1396 1397 1397 1398 1399 1399 1399 1399 1399 1399 1400 1401 1401
1471 1469 1467 1465 1463 1461 1459 1457 1455 1453 1451 1450 1448 1446 1443 1441 1439 1438 1436 1434 1432 1430 1428 1426 1424 1422 1420 1417 1415 1412 1410 1408 1406 1404 1402 1401 1400 1400 1399 1398 1397 1396 1396 1395 1394 1393 1392 1391 1391 1391 1392 1392 1393 1394 1395 1395 1396 1397 1397 1398 1399 1399 1399 1398 1398 1398 1399 1400 1401
1471 1469 1467 1465 1463 1461 1459 1457 1455 1453 1451 1449 1447 1446 1444 1441 1439 1437 1436 1434 1432 1431 1429 1427 1425 1423 1421 1419 1416 1414 1412 1409 1407 1406 1404 1402 1402 1401 1401 1400 1399 1398 1398 1397 1396 1396 1395 1394 1394 1394 1394 1394 1395 1395 1396 1396 1397 1398 1398 1399 1400 1400 1400 1399 1398 1398 1398 1399 1400
1471 1468 1466 1465 1462 1461 1458 1456 1454 1452 1451 1449 1447 1446 1444 1441 1439 1437 1436 1435 1433 1431 1429 1428 1426 1424 1422 1420 1418 1416 1414 1411 1410 1408 1406 1405 1403 1403 1402 1402 1402 1401 1400 1400 1399 1398 1397 1396 1396 1396 1396 1396 1397 1397 1397 1398 1398 1399 1400 1400 1401 1401 1400 1399 1399 1398 1399 1399 1400
1470 1468 1466 1464 1462 1460 1458 1456 1454 1452 1450 1448 1447 1445 1444 1442 1440 1438 1436 1435 1433 1431 1430 1428 1426 1425 1423 1421 1419 1417 1416 1414 1412 1411 1409 1407 1406 1404 1404 1403 1404 1404 1403 1402 1401 1400 1399 1398 1398 1398 1398 1398 1398 1398 1399 1399 1400 1400 1401 1401 1401 1401 1401 1400 1399 1399 1399 1399 1400
1470 1468 1466 1464 1462 1460 1458 1456 1454 1452 1450 1448 1446 1445 1444 1442 1440 1438 1436 1435 1433 1431 1430 1428 1426 1425 1424 1422 1420 1419 1417 1416 1414 1413 1411 1410 1408 1407 1406 1405 1405 1406 1406 1404 1403 1401 1401 1400 1400 1400 1400 1400 1400 1400 1400 1400 1401 1401 1401 1402 1402 1401 1401 1400 1400 1400 1400 1400 1400
1469 1467 1465 1463 1461 1459 1457 1455 1453 1451 1450 1448 1446 1445 1444 1442 1441 1439 1437 1435 1434 1432 1430 1428 1427 1426 1424 1422 1421 1420 1418 1417 1415 1414 1413 1411 1410 1409 1408 1407 1406 1406 1407 1406 1405 1403 1402 1401 1401 1401 1401 1401 1401 1401 1401 1401 1401 1402 1402 1402 1402 1402 1401 1401 1401 1400 1400 1400 1401
1469 1467 1465 1463 1461 1459 1457 1455 1453 1451 1450 1448 1446 1445 1444 1442 1441 1439 1437 1435 1434 1432 1431 1429 1427 1426 1425 1423 1421 1420 1419 1417 1416 1415 1414 1412 1411 1410 1409 1409 1408 1407 1407 1407 1406 1405 1404 1403 1402 1402 1402 1402 1402 1402 1402 1402 1402 1402 1402 1402 1402 1402 1402 1402 1401 1401 1401 1401 1401
1469 1467 1465 1463 1461 1459 1457 1455 1453 1452 1450 1448 1447 1445 1444 1442 1441 1439 1437 1436 1434 1433 1432 1430 1428 1426 1425 1424 1422 1421 1419 1418 1416 1415 1414 1413 1412 1411 1410 1409 1409 1408 1408 1408 1408 1407 1405 1404 1403 1402 1403 1403 1402 1402 1402 1402 1402 1402 1402 1403 1403 1403 1403 1402 1402 1402 1402 1401 1401
1469 1467 1465 1463 1461 1459 1457 1456 1454 1452 1450 1449 1447 1445 1444 1442 1441 1439 1438 1436 1435 1434 1433 1431 1429 1427 1426 1424 1423 1421 1420 1419 1417 1416 1415 1413 1412 1411 1411 1410 1409 1408 1408 1408 1408 1408 1406 1405 1404 1403 1403 1403 1403 1403 1403 1403 1403 1403 1403 1403 1403 1403 1403 1403 1403 1402 1402 1402 1402
1469 1467 1465 1463 1461 1460 1458 1456 1454 1452 1451 1449 1447 1446 1444 1442 1441 1440 1439 1437 1436 1434 1433 1432 1430 1428 1426 1425 1423 1422 1421 1420 1418 1417 1416 1414 1413 1412 1411 1411 1410 1409 1408 1408 1408 1408 1407 1405 1404 1404 1403 1403 1403 1403 1403 1403 1403 1403 1403 1403 1403 1403 1403 1403 1403 1403 1403 1402 1402
1469 1467 1466 1464 1462 1460 1458 1456 1454 1452 1451 1449 1447 1446 1444 1443 1441 1440 1439 1437 1436 1435 1433 1433 1431 1429 1427 1426 1424 1423 1421 1420 1419 1418 1416 1415 1414 1413 1412 1411 1410 1409 1408 1408 1408 1408 1408 1406 1405 1405 1404 1404 1404 1404 1404 1404 1404 1403 1403 1403 1403 1403 1403 1403 1403 1403 1403 1403 1403
1469 1467 1466 1464 1462 1460 1458 1456 1454 1453 1451 1449 1448 1446 1445 1443 1441 1440 1439 1437 1436 1435 1434 1433 1432 1430 1428 1426 1425 1424 1422 1421 1420 1419 1418 1416 1415 1414 1413 1412 1411 1410 1409 1409 1409 1409 1408 1406 1406 1406 1405 1405 1405 1404 1404 1404 1404 1404 1404 1404 1404 1404 1404 1404 1404 1404 1404 1404 1403
1469 1467 1466 1464 1462 1460 1458 1456 1455 1453 1451 1449 1448 1446 1445 1443 1442 1441 1439 1438 1437 1436 1434 1433 1432 1431 1429 1427 1426 1425 1423 1422 1421 1420 1419 1417 1416 1415 1414 1413 1412 1411 1410 1409 1410 1409 1408 1407 1407 1406 1406 1406 1405 1405 1405 1405 1405 1405 1405 1404 1404 1404 1404 1404 1404 1404 1404 1404 1404
1469 1467 1466 1464 1462 1460 1458 1456 1455 1453 1451 1449 1448 1446 1445 1443 1442 1441 1439 1438 1437 1436 1434 1433 1432 1431 1429 1428 1426 1425 1424 1423 1422 1421 1420 1418 1417 1416 1415 1414 1413 1412 1411 1410 1411 1410 1408 1407 1407 1407 1406 1406 1406 1406 1406 1406 1406 1406 1405 1405 1405 1405 1404 1404 1404 1404 1404 1404 1404
1469 1467 1466 1464 1462 1460 1458 1456 1454 1453 1451 1449 1448 1446 1445 1443 1442 1441 1439 1438 1437 1436 1434 1433 1432 1431 1430 1428 1427 1426 1425 1423 1422 1421 1420 1419 1418 1417 1416 1415 1414 1413 1412 1411 1412 1411 1408 1408 1408 1407 1407 1407 1406 1406 1406 1406 1406 1406 1406 1406 1406 1406 1405 1405 1404 1404 1404 1405 1405
1469 1467 1466 1464 1462 1460 1458 1456 1454 1452 1451 1449 1448 1447 1445 1444 1442 1441 1439 1438 1437 1436 1434 1433 1432 1431 1430 1429 1427 1426 1425 1424 1423 1422 1421 1420 1419 1418 1417 1416 1415 1414 1413 1412 1413 1411 1410 1409 1409 1408 1408 1407 1407 1407 1407 1407 1407 1407 1407 1407 1407 1407 1406 1406 1405 1405 1405 1405 1405
1469 1467 1466 1464 1462 1460 1458 1456 1454 1453 1451 1449 1448 1446 1445 1444 1442 1441 1440 1438 1437 1436 1434 1433 1432 1431 1430 1429 1428 1426 1425 1424 1423 1422 1421 1421 1420 1419 1418 1417 1416 1415 1414 1413 1414 1413 1411 1410 1410 1410 1409 1408 1408 1408 1408 1408 1408 1408 1408 1408 1407 1407 1406 1406 1406 1405 1405 1405 1406
1469 1467 1466 1464 1462 1460 1458 1456 1455 1453 1451 1449 1448 1446 1445 1444 1442 1441 1440 1438 1437 1436 1434 1433 1432 1431 1430 1429 1428 1426 1426 1424 1423 1422 1422 1421 1420 1420 1419 1418 1416 1416 1415 1414 1414 1413 1412 1411 1411 1410 1410 1409 1409 1409 1409 1408 1408 1408 1408 1408 1408 1408 1407 1406 1406 1406 1406 1406 1406
1469 1467 1465 1464 1462 1460 1458 1456 1455 1453 1451 1449 1448 1446 1445 1444 1442 1441 1439 1438 1437 1436 1434 1433 1432 1431 1430 1429 1428 1427 1426 1425 1423 1423 1422 1421 1421 1420 1419 1418 1417 1416 1415 1415 1415 1414 1414 1412 1411 1411 1411 1410 1410 1410 1409 1409 1409 1408 1408 1408 1408 1408 1408 1407 1407 1407 1407 1407 1407
Wind_Speed
38 37 37 37 37 37 37 37 36 36 36 37 37 38 38 38 38 38 38 37 35 33 32 33 34 35 36 38 38 37 37 36 35 33 31 29 27 26 25 24 25 27 29 29 28 26 24 24 25 27 29 29 28 28 27 26 24 23 23 22 22 21 21 20 20 19 19 19 19
37 37 36 36 36 36 36 36 36 36 36 36 37 37 37 37 37 37 37 36 35 34 34 34 35 35 37 37 37 37 36 35 34 33 31 29 28 27 26 25 24 24 25 27 27 27 25 24 25 24 25 27 28 28 28 27 26 25 24 23 23 22 21 21 20 20 19 19 18
36 36 36 35 35 35 35 35 35 35 35 36 36 36 36 36 37 37 37 37 36 35 35 35 36 36 36 36 36 35 35 34 34 33 32 30 29 28 27 26 25 23 22 23 24 25 24 22 21 21 21 23 27 28 28 28 27 26 25 25 24 23 22 21 20 20 19 19 18
36 35 35 34 34 33 33 33 34 34 35 35 35 35 35 35 36 36 36 37 37 37 36 36 36 35 35 34 34 34 33 33 32 32 32 31 30 29 29 28 27 24 22 21 21 22 22 19 15 15 16 17 22 25 27 27 28 27 27 26 26 25 23 22 21 19 19 18 18
35 34 33 33 32 32 32 32 33 33 34 35 35 35 35 35 35 36 36 36 37 37 36 36 35 34 34 33 33 32 32 31 31 31 31 31 30 29 29 29 28 26 24 21 21 21 21 19 16 13 12 11 16 18 20 23 26 27 27 27 27 26 25 23 22 20 19 18 17
33 33 33 32 32 31 31 32 32 33 34 34 35 35 35 35 36 36 36 36 37 36 36 35 34 33 33 32 32 31 30 30 29 29 30 30 30 29 29 29 29 28 25 23 22 21 20 17 15 13 11 9 11 13 14 16 20 23 24 25 26 25 25 24 23 22 20 19 17
32 32 32 32 31 31 31 32 33 33 34 35 36 36 36 36 36 36 36 36 36 36 35 35 34 33 32 32 31 30 30 29 29 29 29 29 29 28 28 29 29 28 27 25 24 22 19 15 13 12 12 12 13 13 12 12 15 18 20 21 23 22 21 21 21 21 21 19 18
31 31 31 31 31 31 32 32 33 34 36 36 37 37 37 36 36 36 36 36 36 35 35 34 34 33 32 31 30 30 29 29 29 29 28 28 27 27 27 28 28 29 28 27 25 23 19 16 13 13 14 15 14 12 11 11 13 15 17 18 19 20 20 19 19 19 20 20 19
31 32 32 31 31 31 32 33 34 36 37 37 37 37 37 36 36 36 36 36 35 35 35 34 33 32 31 30 29 28 28 28 29 29 29 27 26 26 26 26 27 28 29 29 28 25 22 18 16 16 16 16 14 11 11 12 13 14 15 16 17 18 18 18 18 18 19 20 20
31 32 32 31 31 32 33 34 35 37 37 38 37 37 36 35 35 35 35 35 35 35 34 33 32 31 30 29 28 27 27 27 28 29 29 28 26 24 24 25 26 27 28 30 30 30 28 25 22 21 19 17 14 13 13 14 16 17 17 17 17 18 18 18 19 19 20 21 22
31 32 32 31 32 32 33 35 36 37 38 38 37 36 35 34 34 34 34 34 34 34 33 32 31 31 30 29 27 26 26 26 27 29 29 28 25 23 23 24 25 25 26 28 31 33 33 33 31 30 27 25 21 18 17 18 20 21 22 22 22 21 21 21 21 22 22 23 24
31 31 32 32 32 33 34 36 37 37 37 37 36 35 34 33 33 34 34 33 33 32 31 31 30 30 29 28 27 25 25 25 26 28 29 28 25 22 21 22 24 24 24 24 28 32 35 35 36 36 36 35 31 27 23 22 23 24 26 27 27 27 26 25 24 24 24 25 25
31 32 32 32 33 34 35 36 36 37 36 36 35 34 33 33 33 33 33 33 31 30 30 29 29 28 28 27 26 25 24 25 25 27 28 28 26 22 20 20 22 22 20 18 21 27 32 34 35 35 35 36 35 32 27 24 23 24 26 27 29 29 28 27 25 24 24 25 25
31 32 32 33 33 34 35 36 36 36 35 35 33 32 32 32 33 33 33 31 30 29 29 28 28 28 27 26 25 25 24 24 25 26 27 27 26 23 20 19 20 20 17 14 15 20 25 28 31 32 33 33 32 30 27 23 21 22 22 24 25 26 26 25 24 24 23 24 24
31 32 32 33 33 34 34 35 35 35 34 33 32 31 30 31 32 33 32 31 29 28 28 28 28 27 26 25 24 24 23 23 24 24 24 25 25 23 20 18 19 19 17 14 13 14 18 21 25 27 29 29 28 27 24 22 21 21 21 21 22 23 23 23 22 22 21 21 21
31 31 32 32 32 33 33 34 34 33 33 32 31 29 29 30 31 32 32 31 29 29 29 28 28 27 25 24 23 23 22 22 22 21 21 21 22 22 20 17 17 18 19 18 16 15 15 16 19 21 23 24 24 24 23 22 22 22 21 21 21 21 21 21 20 20 19 19 19
31 31 31 31 32 32 33 33 33 32 32 31 30 28 27 28 30 31 31 31 30 30 30 29 28 26 24 23 22 21 20 19 17 15 15 16 17 18 17 16 15 16 19 21 21 20 19 19 18 18 19 20 21 22 23 23 24 23 23 22 22 22 21 20 19 19 18 17 17
31 31 31 31 31 31 32 32 32 31 31 31 29 27 26 27 29 30 30 31 31 30 30 29 28 25 22 20 18 17 16 13 10 9 10 12 14 15 14 13 12 12 14 16 18 19 20 20 20 19 18 19 21 22 23 24 25 25 24 24 24 23 22 20 19 18 18 17 17
31 31 30 30 30 30 31 31 31 30 30 30 28 26 25 25 27 28 29 30 30 30 29 27 25 23 20 18 16 15 13 11 9 7 6 9 11 12 11 10 10 11 11 12 12 13 14 16 17 18 18 19 21 23 24 25 25 25 25 25 24 23 22 20 20 19 18 17 17
30 30 30 30 29 30 30 31 31 30 29 29 28 26 24 24 26 27 28 29 29 29 27 25 22 20 18 16 16 15 15 14 13 12 8 6 7 8 8 7 8 10 12 13 13 13 13 15 15 16 17 18 19 21 22 23 24 24 24 24 23 23 21 20 19 18 17 17 16
30 30 30 30 29 29 30 30 30 30 29 28 27 25 23 23 24 26 27 27 27 27 26 24 22 20 18 17 17 18 18 18 19 20 18 14 10 8 6 3 2 5 9 12 14 14 15 16 16 16 17 17 18 19 20 20 21 22 22 22 22 22 20 19 17 16 16 15 15
29 29 29 29 29 29 29 30 30 29 28 27 27 25 23 22 23 25 25 25 26 26 25 25 24 22 21 20 20 21 22 22 23 24 25 23 20 17 13 10 7 4 4 7 9 11 14 16 16 17 17 18 18 19 19 19 19 19 20 20 20 20 19 18 17 16 15 15 15
28 29 29 29 29 29 30 30 30 29 28 26 26 25 24 22 22 24 25 25 25 24 24 24 24 24 23 23 23 23 24 25 26 27 27 28 27 25 22 19 15 13 11 9 7 6 8 11 13 14 15 16 16 16 16 16 15 15 15 15 15 16 16 16 15 15 15 14 14
28 28 28 29 29 29 30 30 30 30 28 26 25 25 24 22 22 23 24 25 24 24 24 23 23 23 23 23 23 24 25 26 27 28 29 29 29 29 28 25 23 21 19 16 14 11 9 9 10 10 11 12 12 12 12 11 11 10 10 9 10 10 10 11 11 12 12 12 12
28 28 28 29 29 30 30 31 30 30 29 26 24 24 24 23 22 22 23 24 24 24 24 23 23 23 22 22 23 23 23 24 25 26 27 28 28 29 29 28 27 25 22 19 17 14 13 12 12 12 11 11 11 11 10 10 9 9 8 7 7 7 8 8 9 9 9 9 9
29 29 29 29 29 30 31 31 30 29 28 26 24 23 23 23 22 22 22 24 24 25 24 24 24 23 22 22 21 21 21 22 22 23 23 24 25 26 27 27 26 24 22 19 18 15 13 13 13 12 12 12 11 11 11 10 9 8 8 7 7 6 7 7 8 9 9 10 10
29 29 29 29 30 30 31 31 30 28 27 26 24 23 22 22 22 21 21 22 23 24 25 25 25 24 24 23 22 22 21 21 20 20 20 20 21 22 23 24 24 23 22 19 18 15 13 12 12 11 11 11 10 10 10 9 8 7 6 6 6 6 5 5 5 5 6 8 9
30 29 29 30 30 30 30 30 29 28 27 26 24 23 22 22 22 21 21 21 22 23 24 25 25 25 24 24 23 23 23 22 22 21 20 19 19 19 19 20 21 21 21 19 18 16 14 12 11 11 10 10 9 9 9 8 7 6 5 5 5 6 6 5 4 3 1 1 3
30 30 29 30 30 30 30 29 28 27 26 26 24 23 21 21 21 21 21 21 21 22 22 23 24 24 24 24 24 24 24 24 24 23 22 21 20 19 19 18 17 18 19 18 17 16 15 14 12 12 11 11 10 10 10 9 9 8 7 7 7 7 7 7 6 6 5 4 3
30 30 29 29 29 29 29 29 28 27 26 25 24 23 21 21 21 22 21 21 21 21 21 21 22 22 23 24 24 25 25 25 25 25 25 24 23 22 21 20 17 16 15 16 16 15 14 14 14 15 14 13 13 13 13 12 11 11 10 9 9 9 9 8 8 7 6 6 5
30 30 29 29 29 28 28 28 27 26 26 25 24 23 22 21 22 22 22 21 21 20 20 20 20 21 22 23 24 25 25 26 26 27 27 27 26 25 23 22 19 16 14 14 14 14 13 12 14 16 16 16 15 15 14 14 13 13 12 12 12 11 11 10 8 7 6 6 6
30 30 29 29 28 28 28 28 27 27 26 25 24 23 22 22 21 21 21 20 20 20 20 20 20 21 22 23 23 24 25 25 26 26 27 27 27 26 25 23 20 16 14 13 13 12 11 11 14 16 17 17 16 15 14 14 13 13 13 12 12 12 12 10 8 6 5 5 5
30 29 29 29 28 28 28 28 27 27 26 25 24 23 23 22 21 21 21 20 19 19 20 20 20 20 21 22 22 23 24 24 24 25 25 26 26 26 25 23 19 16 14 14 14 12 10 10 12 14 16 16 16 14 13 12 12 11 11 11 11 11 10 9 6 4 4 3 3
29 29 29 29 28 28 27 27 27 27 26 25 24 23 23 22 22 22 21 21 19 18 18 19 19 19 20 20 21 21 22 22 22 22 22 23 24 24 24 22 18 15 14 14 14 11 8 8 10 13 14 14 14 13 12 11 10 10 10 10 9 9 8 6 4 3 4 3 4
29 29 29 29 28 28 27 27 27 27 26 26 25 24 23 23 23 23 22 21 20 18 17 17 18 18 18 18 18 19 20 20 20 20 20 20 21 22 21 20 16 14 14 15 14 9 5 7 9 11 12 12 11 10 10 10 10 10 10 9 9 8 6 4 3 4 5 5 5
28 29 29 29 28 28 27 27 27 26 26 25 25 24 23 23 23 23 22 22 20 19 18 17 17 17 17 17 17 17 18 18 18 18 18 18 19 19 19 17 14 13 14 16 13 7 3 6 8 9 9 10 9 9 9 9 9 9 9 9 8 7 6 4 4 5 5 5 4
28 28 28 28 28 28 27 27 26 26 25 25 24 24 23 23 22 22 22 22 21 20 19 18 17 17 17 16 15 15 15 16 16 17 17 17 17 17 16 14 12 12 14 17 12 8 6 8 8 9 9 9 9 9 9 9 9 8 8 8 8 8 8 7 7 8 7 6 4
27 27 27 28 28 28 27 27 27 26 25 24 24 23 23 22 22 22 22 22 22 21 20 18 17 17 16 15 14 14 14 15 15 16 16 16 16 15 14 13 10 10 13 16 13 10 9 9 9 10 10 9 9 8 8 8 8 7 6 6 7 9 10 10 9 9 9 9 7
27 27 26 27 27 27 28 28 27 27 26 24 23 22 22 22 21 21 21 21 21 21 20 18 17 16 15 14 13 13 13 14 15 16 16 16 16 14 13 11 10 10 12 15 14 12 9 8 9 10 10 9 8 7 7 7 6 5 4 4 5 7 8 9 9 8 7 7 7
27 26 25 25 26 27 27 28 28 27 26 25 23 22 21 21 21 20 20 20 21 20 19 17 16 15 14 13 12 12 12 13 14 15 16 16 15 13 12 11 10 11 12 14 15 13 9 8 9 10 10 10 8 6 5 5 4 3 2 3 3 3 4 5 6 6 5 4 5
26 25 24 24 24 26 27 28 29 28 27 26 24 22 21 20 20 20 20 20 20 20 19 17 15 14 13 12 12 11 12 13 14 15 15 15 14 12 10 10 10 12 13 13 15 14 11 9 9 11 12 12 10 8 5 4 4 3 3 2 2 2 1 2 2 3 2 2 4
Wind_Direction
332 332 332 332 331 331 330 330 330 330 330 329 329 328 328 327 325 324 323 321 319 316 312 309 306 304 303 302 302 302 301 300 299 295 290 285 282 283 287 292 294 293 290 285 279 269 258 249 242 233 226 223 222 219 217 216 216 216 217 217 217 216 216 216 218 219 222 225 227
334 333 333 333 333 332 332 332 332 332 332 331 331 330 329 328 327 325 324 322 319 316 312 309 307 305 304 304 304 304 303 302 300 296 290 283 278 276 277 280 283 285 285 284 279 270 259 248 239 230 221 216 218 217 216 215 215 216 216 215 214 214 213 213 214 216 218 220 223
335 335 335 335 335 334 334 334 334 334 333 333 332 331 330 329 328 326 325 323 320 317 314 311 308 306 306 306 306 305 303 302 300 296 291 284 277 272 271 271 273 274 274 271 267 261 254 246 237 230 219 206 212 216 216 215 215 215 215 214 213 212 212 212 212 213 215 217 220
337 337 337 337 337 337 337 337 336 336 335 334 333 332 332 330 329 327 325 323 321 319 317 314 311 308 307 306 305 303 302 301 299 296 292 286 279 273 269 267 267 267 266 262 254 249 247 245 241 231 218 199 201 208 214 216 215 215 214 214 213 213 213 213 212 212 213 215 217
339 339 339 339 339 339 339 339 339 338 337 336 336 335 334 332 330 328 326 324 322 320 318 316 313 310 308 305 302 301 300 299 299 297 293 288 281 275 270 267 265 262 260 256 248 243 242 244 245 238 222 201 194 197 204 212 214 214 213 212 212 213 214 214 214 214 213 214 215
341 341 341 341 341 341 342 342 342 341 340 339 339 338 336 334 332 329 327 325 323 321 319 318 316 313 309 305 302 300 300 300 299 298 295 291 284 277 272 268 265 260 256 251 246 241 238 240 241 233 219 203 187 185 192 203 209 210 210 209 210 211 213 214 215 215 215 215 215
342 342 342 342 343 344 344 344 344 343 343 343 342 341 339 336 334 332 329 327 324 323 322 321 319 316 312 308 304 303 302 302 301 301 299 295 289 282 276 271 266 260 254 248 243 236 229 225 225 216 202 190 185 185 189 198 204 206 206 205 206 206 207 209 212 214 216 218 219
344 344 344 345 346 346 346 346 346 346 346 345 345 343 341 339 336 334 331 329 327 326 325 323 321 318 315 311 307 304 304 304 305 305 303 300 295 288 280 274 268 261 253 245 240 232 222 213 211 208 200 192 188 191 202 210 212 210 207 204 204 203 204 207 211 215 219 223 226
345 346 347 347 348 348 347 347 347 348 348 347 346 345 343 341 339 336 333 331 330 328 327 325 323 320 317 313 309 306 305 306 308 308 307 304 299 293 285 278 271 262 253 243 237 231 225 218 213 207 201 194 194 205 223 233 232 226 217 211 209 208 209 211 216 221 225 229 233
347 348 349 349 349 348 348 348 348 348 348 348 347 346 345 343 341 338 336 334 331 329 328 327 326 324 320 316 311 308 307 308 309 310 309 306 301 295 289 281 274 264 254 243 236 232 231 230 228 225 220 214 214 222 235 244 245 240 233 226 221 219 219 222 227 232 236 239 242
349 351 351 351 350 349 348 348 348 348 349 349 348 347 346 345 343 341 339 336 333 331 330 329 329 327 324 320 315 312 310 310 310 310 309 307 302 297 290 283 275 268 258 246 235 230 230 234 237 238 237 236 237 236 236 240 244 245 242 238 235 232 230 232 237 242 247 250 253
351 352 352 352 351 350 349 348 348 348 349 349 349 348 348 347 346 344 341 338 336 334 333 332 331 329 326 323 319 316 313 311 310 310 309 307 304 298 291 283 276 269 261 249 234 226 225 230 236 241 243 245 247 245 238 236 240 244 246 245 244 241 239 238 241 246 251 255 257
352 353 353 352 351 350 349 348 348 349 349 349 350 350 349 349 348 347 344 342 340 338 337 335 333 331 329 326 323 319 316 312 310 309 309 308 306 301 292 282 274 267 259 248 230 221 220 225 232 237 240 245 248 246 240 235 238 242 244 246 247 245 244 243 244 247 251 254 255
353 354 353 352 351 350 349 349 349 349 349 350 351 351 351 350 350 349 348 345 344 343 341 338 335 333 331 328 325 321 316 312 310 309 309 308 307 302 294 283 272 264 257 243 226 218 219 223 228 234 238 241 244 242 237 232 233 235 237 239 242 244 244 244 245 247 248 249 249
353 354 353 351 351 350 350 350 350 350 350 351 352 352 352 352 353 352 351 349 347 347 345 341 338 334 331 328 324 320 316 312 310 309 310 310 308 304 297 286 274 265 258 249 234 222 219 221 225 231 235 237 238 234 228 223 223 226 229 232 236 239 241 242 242 243 243 243 243
354 353 352 351 350 350 350 351 351 350 351 352 353 354 353 354 355 355 354 351 350 350 348 345 340 336 332 328 324 320 316 312 311 312 313 311 308 305 301 293 280 268 260 255 249 241 233 228 227 229 232 232 230 226 220 215 216 220 225 230 234 238 240 240 239 238 238 239 241
353 352 351 350 350 350 351 351 351 351 351 353 355 355 355 357 358 358 357 354 353 352 350 347 344 341 337 332 328 323 319 316 317 319 317 311 307 306 304 297 285 271 263 258 258 257 255 250 244 237 232 230 227 222 217 215 216 221 226 231 236 240 241 239 236 235 237 241 244
353 351 350 349 349 350 350 351 351 351 352 354 357 357 357 359 1 0 358 357 356 354 351 349 348 346 344 342 339 335 331 329 335 334 321 307 305 307 308 301 288 272 260 254 255 257 258 256 251 245 239 235 232 228 224 221 221 224 228 234 238 240 239 235 232 233 237 242 246
352 350 349 349 348 348 349 350 350 351 352 355 358 359 359 1 2 1 359 359 359 357 355 352 351 352 353 355 357 357 357 1 10 6 334 306 303 308 310 302 287 268 252 241 238 239 240 241 239 238 237 237 237 236 232 228 227 228 231 234 236 235 232 228 228 231 237 242 245
352 350 349 348 347 347 347 348 349 350 351 354 358 0 1 3 3 2 0 360 0 0 0 360 360 1 4 9 15 21 24 27 32 34 27 354 323 318 316 301 277 259 247 237 229 222 218 217 218 220 223 226 228 229 228 227 226 226 227 228 228 226 223 222 224 229 234 238 239
351 350 348 347 347 346 346 346 347 348 349 352 358 2 3 4 4 2 0 360 1 3 6 9 13 17 22 28 35 41 43 43 45 45 45 41 32 18 8 356 267 223 217 216 214 211 207 204 202 202 204 206 207 209 210 210 211 212 214 216 217 216 215 215 219 222 225 227 229
351 349 349 348 347 346 345 345 346 346 347 350 357 3 5 6 6 3 0 359 1 3 8 13 20 28 36 43 50 54 56 56 54 52 50 48 45 41 38 39 48 80 134 162 177 184 187 188 187 187 187 188 189 190 190 190 192 195 199 203 205 206 207 208 210 212 214 216 220
349 349 349 349 348 347 346 345 345 345 346 348 355 2 7 8 8 5 1 359 359 2 6 11 18 26 36 45 52 58 61 62 61 59 57 54 51 47 43 41 42 45 51 62 80 113 141 154 160 164 166 167 168 169 169 170 171 175 181 187 192 196 199 201 202 204 207 212 217
348 349 349 349 348 347 346 345 345 345 345 347 352 0 7 10 11 8 3 359 358 359 2 5 10 18 27 38 47 54 59 61 62 62 61 60 56 52 47 43 41 41 43 45 49 59 74 91 107 119 127 132 135 137 139 141 143 146 152 159 168 175 181 187 192 197 203 210 217
348 348 348 347 347 346 346 346 346 346 346 346 349 356 5 11 13 12 7 1 358 358 358 360 2 7 15 24 34 43 51 55 57 59 60 61 61 58 53 47 41 39 39 42 48 55 63 68 75 83 91 97 102 105 107 108 110 112 116 122 129 138 146 154 162 172 181 191 199
348 347 346 345 345 345 346 347 347 347 347 347 348 353 1 9 13 15 12 5 0 358 357 357 358 359 2 8 16 25 33 41 45 49 52 55 58 59 58 53 46 39 35 36 41 49 58 63 67 72 77 82 85 88 90 90 90 91 92 93 97 103 115 127 138 147 157 164 170
350 347 345 344 345 346 347 348 348 349 350 350 349 350 355 4 11 15 15 11 4 359 356 356 356 356 356 357 1 6 11 17 23 29 34 39 44 50 54 55 51 44 36 30 31 35 44 53 58 61 64 68 72 74 76 76 76 75 72 68 64 65 71 84 105 127 146 157 163
352 349 347 346 348 349 350 350 351 352 353 353 351 349 351 358 6 12 15 15 10 2 357 355 355 356 356 356 357 358 360 1 4 7 11 15 21 29 37 45 48 46 39 30 25 24 26 34 41 44 46 48 51 55 57 58 57 53 45 36 29 25 25 26 30 38 64 139 170
354 351 350 351 352 353 353 354 355 356 357 356 354 351 351 355 1 7 12 16 15 9 0 354 354 355 357 359 359 359 359 359 359 358 358 359 2 5 11 19 30 39 39 33 26 20 16 14 18 23 26 27 28 29 30 30 29 26 21 14 7 3 1 359 356 353 349 344 337
356 355 354 355 356 356 357 357 358 359 359 359 357 356 354 355 358 2 8 14 18 15 6 356 354 355 358 0 1 2 3 3 2 0 359 358 358 358 358 0 6 20 33 35 27 18 11 8 5 6 9 10 10 10 10 9 8 6 4 1 357 355 354 353 350 347 343 340 340
357 357 357 357 358 358 358 359 0 1 2 1 1 0 359 358 358 0 4 10 17 18 12 1 356 356 359 1 2 4 5 6 5 5 4 3 1 359 358 358 359 7 23 35 30 18 6 2 357 358 0 1 1 1 0 359 358 356 355 353 352 351 352 353 352 349 344 342 342
357 357 357 358 358 358 358 359 1 2 3 2 3 4 4 2 360 359 1 5 12 18 16 8 360 358 359 1 3 5 6 7 8 8 7 6 5 3 1 1 2 8 19 31 28 17 2 351 350 353 356 357 358 358 358 357 356 354 352 350 349 350 352 355 358 360 358 355 354
357 357 357 357 357 357 357 359 0 2 2 2 3 5 5 4 1 359 360 3 7 13 16 12 4 1 0 2 4 6 7 9 10 11 11 10 8 6 5 5 8 14 22 26 21 10 354 342 345 350 353 355 357 358 359 359 359 357 355 352 349 349 351 357 9 27 37 32 30
355 355 355 355 355 355 355 357 359 360 0 1 2 4 5 4 2 1 1 2 3 6 10 12 8 5 2 2 4 6 8 9 11 13 13 12 10 9 8 10 15 23 28 26 15 2 342 332 341 347 350 353 357 359 1 0 360 359 357 355 352 351 352 0 30 70 86 86 91
353 352 352 352 352 353 353 354 356 357 358 359 360 1 3 3 3 2 1 0 359 359 1 5 7 6 5 4 5 6 7 9 11 13 14 14 12 11 10 14 22 32 35 29 17 2 333 328 336 343 348 354 359 3 3 360 358 357 357 359 0 2 5 22 76 106 114 117 126
350 350 350 350 350 350 351 352 353 354 355 356 357 358 360 1 1 0 359 357 356 355 356 357 360 2 5 7 8 9 9 8 9 11 13 13 13 12 11 15 25 34 34 29 28 26 357 340 340 345 353 0 5 6 3 358 356 356 360 8 19 28 39 58 92 109 112 113 127
347 348 348 348 348 348 349 349 350 351 352 353 354 355 356 357 358 358 357 354 353 352 353 353 354 356 1 7 10 11 10 8 7 7 9 11 11 11 11 14 20 28 29 28 35 38 20 359 359 3 9 11 10 5 0 356 353 356 6 25 48 65 74 80 91 97 95 84 79
344 345 346 346 346 346 346 347 347 348 348 349 350 351 352 353 354 355 354 353 351 350 350 351 351 352 355 1 6 9 8 7 5 5 5 7 8 9 10 11 12 18 22 25 29 28 22 17 19 20 20 17 10 2 356 352 350 355 13 42 74 92 98 96 97 98 94 85 72
342 343 345 345 345 345 345 346 346 346 346 346 346 347 348 349 350 350 350 350 350 349 349 350 350 349 350 353 358 3 5 4 3 2 2 3 4 5 7 9 6 8 16 22 22 23 25 31 31 29 25 20 11 0 351 346 344 349 11 51 89 105 106 99 102 105 103 96 84
340 342 343 343 343 344 346 347 347 346 345 344 343 343 344 345 344 343 344 346 348 349 351 352 351 349 347 349 354 359 2 3 1 1 0 1 1 2 5 7 5 4 10 18 21 22 26 33 34 33 30 26 19 5 349 339 332 333 356 43 82 103 102 90 96 102 103 90 74
340 342 342 342 343 345 348 350 350 348 346 345 343 341 340 339 338 338 339 342 346 350 352 354 353 350 348 348 352 356 359 1 1 360 360 360 0 2 5 7 6 6 8 14 19 19 19 22 31 37 38 35 29 21 8 350 329 321 330 2 26 39 38 42 62 74 70 34 14